Location: Calvatone
(45.1167°N, 10.4333°E)
Time: 15:17:49
(UTC+00:00)

Cosmos 2237 - Pass Details

Date: 28 January 2023
Orbit: 845 x 857 km, 70.8° (Epoch: 31 March)

Event Time Altitude Azimuth Distance (km) Brightness Sun altitude
Rises 18:26:07 0° 192° (SSW) 3,397 7.6 -22.3°
Reaches altitude 10° 18:28:35 10° 189° (S) 2,468 6.8 -22.7°
Maximum altitude 18:34:09 60° 111° (ESE) 969 4.2 -23.7°
Enters shadow 18:34:41 58° 85° (E) 994 4.2 -23.8°
